Wind_Speed
14 5 6 8 8 11 16 15 13 12 13 10 9 6 7 7 9 12 13 14 15 15 16 21 20 20 19 17 12 11 10 12 10 9 9 10 10 11 13 14 14 15 15 12
6 8 7 10 11 13 14 16 17 17 17 15 10 9 6 9 8 11 13 14 15 16 18 20 20 20 19 14 13 12 12 11 9 9 10 10 11 12 14 14 15 16 14 11
5 3 5 6 15 17 17 17 12 15 15 9 8 6 8 7 6 9 10 12 15 15 18 18 19 19 16 16 13 11 11 9 9 9 9 10 12 14 14 15 15 16 14 12
0 2 1 2 2 4 6 12 14 13 14 12 7 7 6 5 7 7 9 11 12 14 17 17 17 15 16 13 9 11 9 8 8 9 10 11 13 15 15 15 16 16 13 11
2 6 9 11 5 1 2 4 9 8 10 11 6 5 13 8 3 6 7 8 11 15 16 15 14 15 14 12 10 7 8 8 8 10 12 13 15 16 16 16 16 15 14 12
3 3 4 4 4 1 2 5 7 9 10 10 3 5 2 4 2 4 6 8 11 13 12 14 15 14 13 9 6 6 7 9 10 11 12 15 16 17 16 16 17 15 13 11
5 3 6 5 3 2 5 3 8 10 9 8 7 4 7 8 4 7 7 9 9 10 12 14 11 6 2 2 4 6 7 9 11 12 14 15 16 16 15 16 15 13 11 10
3 2 5 6 6 2 5 7 8 9 9 8 10 9 7 8 7 5 4 6 9 10 11 10 7 5 1 6 2 3 7 10 12 14 15 15 15 15 16 17 15 12 12 11
6 1 5 4 4 4 5 7 8 10 10 10 10 12 12 7 6 1 4 8 8 13 10 7 4 1 3 2 3 5 8 11 14 15 14 14 16 17 17 16 14 14 12 12
1 3 1 3 3 3 7 8 11 11 11 11 12 11 10 2 1 3 8 13 12 10 7 3 1 3 5 4 5 8 10 13 13 14 14 15 16 19 14 12 15 14 12 13
5 8 4 1 7 9 10 9 10 11 10 9 11 9 4 5 8 14 15 14 12 8 3 5 5 5 5 6 8 11 12 12 12 13 14 16 18 17 13 13 14 15 14 14
3 5 4 7 11 9 8 10 10 10 10 12 11 11 16 13 18 16 14 10 9 5 3 5 6 7 8 8 9 10 11 11 11 12 15 17 17 17 15 15 17 20 22 22
3 8 4 5 10 11 12 13 15 16 17 17 22 22 21 16 15 13 9 5 3 4 7 8 10 11 10 10 10 10 11 12 13 15 16 16 17 17 18 18 18 19 21 23
5 7 8 11 7 12 14 17 21 23 23 22 21 19 16 12 7 4 2 3 6 8 10 11 12 13 12 12 12 12 13 15 17 16 15 15 17 19 19 19 18 17 18 19
7 10 10 11 12 13 17 19 16 13 12 11 10 10 8 6 4 2 5 6 7 9 12 13 15 16 14 13 15 16 17 18 17 16 16 17 18 19 20 20 20 20 19 17
10 10 10 12 12 13 13 11 11 7 7 6 6 4 6 6 6 7 7 8 9 13 16 19 22 22 19 19 20 21 22 22 19 18 19 19 17 18 20 20 20 18 19 19
11 8 11 12 12 12 10 9 8 7 7 9 7 8 8 9 9 8 11 11 15 19 22 21 24 19 18 20 23 25 24 23 19 19 20 21 20 20 19 20 20 20 20 20
14 12 13 12 9 7 7 8 6 5 7 7 8 9 10 10 10 12 14 18 22 22 22 19 15 17 20 22 23 26 24 21 20 20 21 20 22 22 18 21 21 20 20 18
15 13 12 9 7 7 6 6 7 7 8 9 10 10 11 13 12 15 17 15 17 20 21 22 24 23 24 26 24 23 21 22 21 21 17 22 24 24 22 21 20 19 19 19
11 10 9 9 9 8 8 8 5 7 8 10 12 11 13 14 17 16 17 17 18 20 21 20 27 27 27 29 28 24 21 22 21 16 18 20 24 25 24 22 18 17 18 20
9 9 8 9 10 11 12 9 9 8 9 12 11 12 13 16 13 15 18 19 21 20 22 29 29 28 25 30 31 28 24 23 19 17 17 19 21 21 20 20 19 17 17 18
8 9 8 8 9 9 7 7 7 8 9 10 11 13 16 17 19 18 17 20 24 29 29 29 29 29 32 35 32 28 27 27 23 16 16 16 16 15 16 16 16 16 17 19
9 10 10 9 7 6 5 8 9 7 8 10 11 13 15 16 18 20 19 23 27 28 30 29 30 28 31 34 33 28 27 28 14 5 8 11 13 14 14 15 16 18 18 19
9 8 7 6 5 4 5 7 8 6 8 10 11 13 14 18 18 17 21 26 26 28 26 27 29 29 27 24 23 20 18 14 11 10 9 9 10 11 12 13 15 16 18 20
7 7 6 3 2 4 5 8 8 9 11 12 12 12 14 15 17 21 21 22 23 23 24 23 24 25 24 22 20 18 16 15 14 12 12 12 11 13 13 14 15 17 18 19
6 5 5 6 5 6 6 9 9 10 12 12 13 14 15 15 16 17 18 18 20 21 21 20 21 22 21 20 18 17 16 15 15 15 14 13 14 14 15 17 17 18 19 21
7 5 3 3 5 7 8 8 10 10 11 12 14 14 15 16 16 17 18 19 19 19 20 20 19 19 20 19 17 17 16 15 15 16 15 15 15 16 17 18 18 20 21 21
Wind_Direction
261 307 298 291 270 233 235 239 255 266 272 290 315 293 263 242 229 232 215 217 213 212 206 206 202 202 202 192 193 179 217 225 244 257 266 266 265 273 287 291 291 293 298 304
259 240 267 273 263 258 245 250 257 263 271 297 348 310 257 268 249 239 219 212 215 216 213 208 204 207 200 182 191 204 214 230 251 264 267 267 272 283 287 290 292 294 294 290
246 340 306 288 244 246 248 250 256 269 281 316 321 282 275 264 238 250 243 225 220 220 218 210 208 206 181 192 202 199 222 242 260 266 264 270 278 283 287 292 293 289 286 280
193 242 309 291 37 323 286 277 268 273 283 283 293 327 303 273 283 240 249 243 228 220 216 209 211 184 194 195 189 211 236 261 266 262 268 275 282 284 283 288 293 287 281 274
173 222 291 281 163 273 228 297 31 349 348 336 33 300 263 218 231 288 279 250 230 216 211 201 186 192 186 186 200 237 249 271 272 270 271 276 281 284 286 288 291 286 281 263
164 210 232 83 95 138 225 249 35 0 344 331 270 271 50 127 224 224 237 229 214 205 187 188 189 182 186 178 208 268 292 282 274 277 281 282 286 287 285 283 283 282 281 281
202 249 284 62 126 204 244 38 359 351 335 315 268 355 5 351 304 257 224 200 182 170 170 178 162 131 165 105 253 256 273 275 277 282 286 287 290 288 279 280 286 288 280 270
177 205 269 131 139 306 14 323 343 328 327 313 294 301 322 317 295 258 200 130 151 163 136 112 118 106 317 255 8 325 293 283 287 291 289 289 289 281 276 279 280 271 265 251
207 199 97 188 350 339 328 316 323 319 311 308 292 289 294 316 307 357 124 132 136 108 109 103 90 141 265 312 331 284 283 290 294 293 291 286 283 285 287 289 283 270 259 246
307 114 261 305 321 3 352 337 327 324 320 323 313 315 308 38 69 126 119 91 85 98 95 130 196 339 334 319 303 297 292 292 295 295 293 290 287 279 279 279 278 272 265 261
242 290 341 104 48 2 335 328 335 341 337 348 324 316 29 100 96 75 84 77 75 76 53 357 332 314 297 296 291 290 295 296 295 293 291 291 287 288 291 281 272 269 261 255
229 46 348 331 23 359 12 17 16 16 32 26 23 60 75 71 79 80 78 75 67 35 332 295 292 286 283 283 288 289 289 292 292 293 289 286 291 292 287 287 277 266 262 260
323 345 352 20 55 47 58 48 55 59 62 67 61 74 81 82 76 72 68 58 3 296 274 277 277 278 283 284 280 276 276 283 288 287 288 297 296 292 288 286 279 263 262 260
355 325 114 44 67 70 75 80 83 82 81 83 87 86 89 94 103 120 184 239 261 277 283 288 285 282 282 278 274 269 271 275 273 283 292 292 291 291 291 285 283 274 264 261
56 61 77 83 85 86 93 100 93 93 102 102 108 119 130 149 181 249 339 318 301 292 289 285 283 285 288 282 272 273 275 276 277 284 285 284 286 283 284 279 276 277 275 266
79 85 91 95 101 109 113 113 106 106 113 118 97 46 16 352 330 318 311 309 300 303 303 299 293 289 288 282 277 275 279 280 272 275 277 280 277 280 282 275 269 272 270 256
110 106 116 118 125 129 111 106 110 88 57 40 16 1 356 352 331 330 328 323 312 308 308 302 296 299 294 284 279 278 280 282 282 277 271 274 278 271 279 278 274 275 272 264
114 127 123 116 110 119 107 78 63 38 36 26 18 12 4 355 335 327 326 324 320 317 317 306 307 310 304 297 292 286 284 282 280 276 276 278 280 274 276 281 279 278 278 266
118 116 118 111 91 80 83 78 63 60 50 30 16 2 347 342 337 328 326 318 313 309 318 321 316 315 312 306 301 292 282 275 277 278 280 285 286 277 270 268 270 272 275 274
116 107 103 93 83 87 86 69 72 65 41 17 9 1 349 345 341 338 331 320 313 314 328 333 331 323 315 311 306 290 276 279 276 274 285 283 285 285 280 273 269 276 278 279
113 107 107 110 99 89 83 67 56 42 21 13 10 358 345 331 331 332 329 326 325 326 330 326 318 314 313 314 311 302 297 273 266 272 279 290 291 292 292 287 275 275 276 281
123 110 105 116 117 104 78 58 46 35 23 10 3 355 346 338 336 330 328 321 332 335 329 320 315 317 314 310 301 296 293 280 261 259 284 299 308 318 322 319 314 309 297 283
123 121 112 103 107 101 76 45 31 27 11 0 351 350 343 334 333 334 330 334 332 329 329 325 327 332 330 326 303 284 292 281 261 302 321 317 316 319 325 327 328 327 327 325
119 111 106 103 99 76 37 14 359 0 3 346 350 353 345 338 335 333 328 328 330 333 332 335 344 343 340 336 344 353 358 358 12 6 348 340 335 336 336 338 337 333 329 328
120 117 103 110 81 38 7 354 343 348 346 345 343 343 343 340 333 331 333 336 338 341 342 345 347 349 350 350 351 355 360 13 11 3 357 352 347 343 341 340 338 335 335 335
135 111 98 68 49 20 4 353 346 344 344 338 337 340 338 336 336 336 336 339 341 343 344 345 348 351 352 352 354 357 359 3 3 360 357 353 349 346 341 338 336 335 334 336
90 71 83 78 31 10 1 350 343 338 336 339 331 332 334 335 335 335 336 336 337 339 341 343 346 349 351 352 353 355 357 358 358 358 356 352 350 344 340 338 335 333 332 334
Height
757 762 762 760 759 760 765 764 772 765 755 744 741 745 745 747 752 754 759 768 772 779 786 792 798 804 809 813 816 819 822 823 825 828 828 829 831 831 832 831 830 829 827 826
776 766 768 769 761 758 755 756 755 752 753 738 742 739 747 751 754 756 758 766 772 777 783 788 795 801 806 810 815 817 820 822 824 824 825 827 828 829 828 827 826 825 823 823
781 779 777 792 768 758 752 749 752 762 749 739 748 750 753 752 755 758 759 762 768 774 780 786 792 799 804 810 812 814 818 819 821 822 823 824 825 824 824 823 822 821 819 819
786 803 809 751 748 749 754 748 742 744 743 741 744 750 752 751 754 756 760 762 766 772 778 784 791 797 804 806 810 814 816 818 819 820 821 821 821 821 820 818 818 816 815 815
797 781 764 754 749 759 761 756 748 753 750 746 750 758 753 751 756 758 759 762 765 771 777 783 791 799 802 806 809 812 814 815 816 817 816 816 816 816 815 815 814 812 810 811
791 798 800 761 758 758 757 769 756 756 755 755 755 764 752 755 758 760 761 763 767 772 778 787 794 799 802 803 806 809 813 815 815 815 815 814 813 812 812 812 810 809 807 807
786 789 770 750 757 759 773 774 760 759 758 757 759 758 759 759 759 761 760 763 768 774 782 790 796 804 807 805 807 807 810 813 814 812 812 810 810 809 808 807 807 807 807 806
784 799 792 756 760 770 764 758 758 760 759 761 759 757 762 763 762 763 765 772 778 784 790 799 803 806 807 806 806 809 812 813 811 809 808 807 807 805 803 801 801 801 802 803
764 762 756 755 758 757 760 763 762 762 760 761 760 759 758 763 766 770 773 781 787 792 801 805 808 807 807 808 808 809 810 810 808 807 806 804 803 802 799 798 797 797 797 798
765 751 752 755 756 759 761 762 762 761 761 761 760 760 760 767 773 778 783 790 800 804 808 810 808 809 810 809 810 809 808 807 805 804 803 801 799 797 794 794 795 795 795 793
760 755 754 753 760 766 767 766 764 764 764 768 767 763 764 773 780 788 798 804 807 810 811 811 812 810 810 810 808 807 805 804 803 801 800 798 796 793 791 790 790 791 791 790
764 764 768 764 768 773 770 772 773 772 771 775 772 773 780 790 799 806 809 811 811 813 813 811 810 809 808 807 806 805 803 801 800 799 798 795 792 789 788 787 785 786 786 785
767 770 770 774 779 780 782 782 783 784 786 790 794 798 803 808 810 812 813 812 812 811 809 809 808 806 805 804 803 802 801 799 797 796 793 791 789 786 781 781 779 779 779 778
776 773 774 780 783 788 794 797 798 800 802 804 806 808 809 811 812 812 811 808 806 806 805 805 805 803 802 801 800 798 797 795 794 791 788 788 786 783 780 777 775 773 771 771
780 780 783 789 793 798 802 803 804 806 808 809 809 809 810 810 809 808 808 809 808 807 805 803 801 799 798 797 795 794 792 790 787 787 785 782 780 778 775 772 770 767 766 765
789 791 794 797 803 806 807 808 808 811 811 809 809 810 810 810 810 809 808 808 807 805 803 801 798 796 795 793 790 787 784 783 781 780 779 776 774 772 769 766 764 762 760 758
797 802 804 805 805 805 805 806 808 808 809 812 814 814 813 812 811 810 810 809 806 804 801 798 794 792 790 788 785 782 778 776 774 773 771 770 767 765 763 761 758 755 753 752
796 799 801 803 807 808 808 811 813 814 815 816 816 815 815 814 814 812 809 807 803 800 797 794 792 789 787 783 780 776 772 770 769 766 765 763 761 758 756 754 752 749 747 745
798 801 804 805 808 810 812 814 816 817 818 817 816 816 816 814 813 812 808 806 803 798 794 792 789 786 783 779 775 771 768 766 763 761 759 757 755 751 749 746 744 742 741 739
803 805 808 811 813 814 816 817 817 817 818 819 817 816 815 813 812 810 807 804 801 797 793 790 786 783 779 774 769 765 762 760 757 755 754 751 748 744 741 739 737 736 734 733
806 810 812 814 816 818 819 819 820 820 820 820 819 818 816 813 811 808 805 801 798 795 792 788 785 779 775 770 765 760 756 753 750 749 747 745 741 738 736 733 731 730 729 727
809 813 815 816 817 819 821 822 822 821 821 820 819 818 815 811 809 806 805 801 796 793 789 785 780 775 771 765 759 754 750 746 743 742 741 739 737 734 732 730 728 725 724 722
810 813 816 817 818 820 822 822 822 821 822 821 820 818 816 814 809 805 800 800 797 793 788 783 777 771 765 759 751 746 743 738 735 735 736 737 735 733 731 729 726 724 721 719
812 815 817 820 821 821 821 823 822 821 821 820 819 818 816 812 809 807 804 800 796 792 787 782 775 769 764 758 752 747 743 739 737 736 737 736 735 733 731 729 726 724 721 718
816 818 819 821 820 820 823 823 822 820 820 819 818 817 816 813 811 807 804 800 795 791 786 781 776 771 766 761 756 752 748 745 743 741 739 738 736 734 732 730 727 724 721 718
816 817 820 822 823 824 825 824 823 822 821 819 818 817 814 812 810 807 803 799 795 791 787 782 778 774 769 765 761 757 753 750 747 744 742 740 737 735 733 730 727 724 721 717
820 821 821 822 825 825 826 826 824 823 822 820 819 816 814 812 809 806 803 799 795 791 787 783 779 776 772 768 764 760 757 754 751 748 745 742 739 737 734 731 727 724 720 717